| time (UTC) | temp C | wind direction | speed KPH | gust KPH | rain 1hr cm | rain 24hr cm | rain mn cm | humidity % | barometer mb |
| 20260504004744 | 13 | 350 | 1.6 | 27.4 | 0.00 | 0.00 | 0.00 | 39 | 1013.2 |
| 20260504004244 | 13 | 285 | 1.6 | 27.4 | 0.00 | 0.00 | 0.00 | 39 | 1013.1 |
| 20260504003744 | 13 | 277 | 0.0 | 27.4 | 0.00 | 0.00 | 0.00 | 39 | 1013.0 |
| 20260504003243 | 13 | 288 | 0.0 | 27.4 | 0.00 | 0.00 | 0.00 | 39 | 1012.9 |
| 20260504002743 | 13 | 217 | 0.0 | 27.4 | 0.00 | 0.00 | 0.00 | 39 | 1012.8 |
| 20260504002243 | 13 | 217 | 0.0 | 27.4 | 0.00 | 0.00 | 0.00 | 39 | 1012.7 |
| 20260504001743 | 13 | 212 | 0.0 | 27.4 | 0.00 | 0.00 | 0.00 | 38 | 1012.5 |
| 20260504001243 | 13 | 210 | 0.0 | 27.4 | 0.00 | 0.00 | 0.00 | 38 | 1012.5 |
| 20260504000742 | 14 | 210 | 1.6 | 27.4 | 0.00 | 0.00 | 0.00 | 37 | 1012.3 |
| 20260504000242 | 14 | 210 | 0.0 | 27.4 | 0.00 | 0.00 | 0.00 | 37 | 1012.4 |
| 20260503235742 | 14 | 198 | 0.0 | 27.4 | 0.00 | 0.00 | 0.00 | 36 | 1012.3 |
| 20260503235242 | 14 | 274 | 0.0 | 27.4 | 0.00 | 0.00 | 0.00 | 36 | 1012.3 |
| 20260503234742 | 15 | 274 | 0.0 | 27.4 | 0.00 | 0.00 | 0.00 | 36 | 1012.3 |
| 20260503234241 | 15 | 265 | 0.0 | 27.4 | 0.00 | 0.00 | 0.00 | 35 | 1012.3 |
| 20260503233741 | 15 | 107 | 1.6 | 27.4 | 0.00 | 0.00 | 0.00 | 35 | 1012.2 |
| 20260503233241 | 15 | 261 | 0.0 | 27.4 | 0.00 | 0.00 | 0.00 | 34 | 1012.2 |
| 20260503232741 | 15 | 268 | 0.0 | 27.4 | 0.00 | 0.00 | 0.00 | 34 | 1012.1 |
| 20260503232241 | 15 | 273 | 4.8 | 27.4 | 0.00 | 0.00 | 0.00 | 33 | 1012.1 |
| 20260503231741 | 15 | 274 | 1.6 | 27.4 | 0.00 | 0.00 | 0.00 | 33 | 1012.1 |
| 20260503231241 | 15 | 251 | 3.2 | 27.4 | 0.00 | 0.00 | 0.00 | 33 | 1012.0 |
| 20260503230740 | 15 | 300 | 3.2 | 27.4 | 0.00 | 0.00 | 0.00 | 33 | 1012.0 |
| 20260503230240 | 15 | 205 | 1.6 | 27.4 | 0.00 | 0.00 | 0.00 | 33 | 1011.9 |
| 20260503225740 | 16 | 283 | 3.2 | 27.4 | 0.00 | 0.00 | 0.00 | 32 | 1012.0 |
| 20260503225240 | 16 | 274 | 1.6 | 27.4 | 0.00 | 0.00 | 0.00 | 32 | 1012.0 |
| 20260503224740 | 16 | 282 | 1.6 | 27.4 | 0.00 | 0.00 | 0.00 | 32 | 1011.9 |
| 20260503224240 | 16 | 253 | 1.6 | 27.4 | 0.00 | 0.00 | 0.00 | 31 | 1011.9 |
| 20260503223740 | 16 | 239 | 1.6 | 27.4 | 0.00 | 0.00 | 0.00 | 31 | 1011.8 |
| 20260503223239 | 16 | 237 | 1.6 | 27.4 | 0.00 | 0.00 | 0.00 | 30 | 1011.8 |
| 20260503222739 | 16 | 269 | 1.6 | 27.4 | 0.00 | 0.00 | 0.00 | 30 | 1011.8 |
| 20260503222239 | 16 | 289 | 3.2 | 27.4 | 0.00 | 0.00 | 0.00 | 29 | 1011.7 |
| 20260503221739 | 17 | 282 | 4.8 | 27.4 | 0.00 | 0.00 | 0.00 | 29 | 1011.7 |
| 20260503221239 | 17 | 284 | 0.0 | 27.4 | 0.00 | 0.00 | 0.00 | 30 | 1011.6 |
| 20260503220739 | 17 | 283 | 1.6 | 27.4 | 0.00 | 0.00 | 0.00 | 28 | 1011.8 |
| 20260503220239 | 17 | 283 | 8.0 | 27.4 | 0.00 | 0.00 | 0.00 | 28 | 1011.8 |
| 20260503215738 | 16 | 259 | 1.6 | 27.4 | 0.00 | 0.00 | 0.00 | 29 | 1011.8 |
| 20260503215238 | 16 | 278 | 3.2 | 27.4 | 0.00 | 0.00 | 0.00 | 29 | 1011.8 |
| 20260503214738 | 17 | 320 | 4.8 | 27.4 | 0.00 | 0.00 | 0.00 | 28 | 1011.8 |
| 20260503214238 | 17 | 285 | 3.2 | 27.4 | 0.00 | 0.00 | 0.00 | 28 | 1011.8 |
| 20260503213738 | 17 | 269 | 1.6 | 27.4 | 0.00 | 0.00 | 0.00 | 28 | 1011.8 |
| 20260503213238 | 17 | 281 | 8.0 | 27.4 | 0.00 | 0.00 | 0.00 | 29 | 1011.8 |
| 20260503212738 | 17 | 285 | 3.2 | 27.4 | 0.00 | 0.00 | 0.00 | 29 | 1011.8 |
| 20260503212237 | 17 | 291 | 8.0 | 27.4 | 0.00 | 0.00 | 0.00 | 29 | 1011.8 |
| 20260503211737 | 17 | 270 | 1.6 | 27.4 | 0.00 | 0.00 | 0.00 | 29 | 1011.9 |
| 20260503211237 | 17 | 261 | 3.2 | 27.4 | 0.00 | 0.00 | 0.00 | 29 | 1011.8 |
| 20260503210737 | 17 | 277 | 3.2 | 27.4 | 0.00 | 0.00 | 0.00 | 29 | 1011.8 |
| 20260503210237 | 17 | 330 | 4.8 | 27.4 | 0.00 | 0.00 | 0.00 | 29 | 1011.8 |
| 20260503205737 | 17 | 255 | 3.2 | 27.4 | 0.00 | 0.00 | 0.00 | 29 | 1011.6 |
| 20260503205236 | 16 | 278 | 3.2 | 27.4 | 0.00 | 0.00 | 0.00 | 29 | 1011.7 |
| 20260503204736 | 17 | 287 | 4.8 | 27.4 | 0.00 | 0.00 | 0.00 | 29 | 1011.6 |
| 20260503204236 | 17 | 282 | 9.7 | 27.4 | 0.00 | 0.00 | 0.00 | 29 | 1011.6 |
| 20260503203736 | 17 | 260 | 1.6 | 27.4 | 0.00 | 0.00 | 0.00 | 29 | 1011.7 |
| 20260503203236 | 17 | 326 | 3.2 | 27.4 | 0.00 | 0.00 | 0.00 | 29 | 1011.7 |
| 20260503202736 | 17 | 277 | 1.6 | 27.4 | 0.00 | 0.00 | 0.00 | 30 | 1011.7 |
| 20260503202235 | 17 | 270 | 3.2 | 24.1 | 0.00 | 0.00 | 0.00 | 30 | 1011.8 |
| 20260503201735 | 16 | 196 | 1.6 | 24.1 | 0.00 | 0.00 | 0.00 | 30 | 1011.8 |
| 20260503201235 | 16 | 295 | 8.0 | 24.1 | 0.00 | 0.00 | 0.00 | 29 | 1011.8 |
| 20260503200735 | 16 | 298 | 3.2 | 24.1 | 0.00 | 0.00 | 0.00 | 29 | 1011.9 |
| 20260503200235 | 16 | 311 | 4.8 | 22.5 | 0.00 | 0.00 | 0.00 | 30 | 1011.8 |
| 20260503195735 | 16 | 270 | 3.2 | 22.5 | 0.00 | 0.00 | 0.00 | 31 | 1012.1 |
| 20260503195235 | 16 | 286 | 3.2 | 22.5 | 0.00 | 0.00 | 0.00 | 31 | 1012.0 |
| 20260503194734 | 16 | 279 | 3.2 | 22.5 | 0.00 | 0.00 | 0.00 | 32 | 1012.0 |
| 20260503194234 | 15 | 289 | 3.2 | 22.5 | 0.00 | 0.00 | 0.00 | 32 | 1012.2 |
| 20260503193734 | 15 | 289 | 4.8 | 22.5 | 0.00 | 0.00 | 0.00 | 32 | 1012.2 |
| 20260503193234 | 15 | 310 | 4.8 | 22.5 | 0.00 | 0.00 | 0.00 | 32 | 1012.3 |
| 20260503192734 | 15 | 295 | 4.8 | 22.5 | 0.00 | 0.00 | 0.00 | 32 | 1012.3 |
| 20260503192234 | 15 | 301 | 4.8 | 22.5 | 0.00 | 0.00 | 0.00 | 33 | 1012.3 |
| 20260503191733 | 15 | 286 | 8.0 | 22.5 | 0.00 | 0.00 | 0.00 | 32 | 1012.4 |
| 20260503191233 | 16 | 310 | 1.6 | 22.5 | 0.00 | 0.00 | 0.00 | 32 | 1012.3 |
| 20260503190733 | 16 | 285 | 4.8 | 22.5 | 0.00 | 0.00 | 0.00 | 33 | 1012.4 |
| 20260503190233 | 15 | 296 | 3.2 | 22.5 | 0.00 | 0.00 | 0.00 | 34 | 1012.3 |
| 20260503185733 | 15 | 282 | 4.8 | 22.5 | 0.00 | 0.00 | 0.00 | 33 | 1012.4 |
| 20260503185233 | 16 | 288 | 3.2 | 22.5 | 0.00 | 0.00 | 0.00 | 34 | 1012.5 |
| 20260503184732 | 15 | 282 | 8.0 | 22.5 | 0.00 | 0.00 | 0.00 | 34 | 1012.5 |
| 20260503184232 | 15 | 317 | 1.6 | 22.5 | 0.00 | 0.00 | 0.00 | 35 | 1012.8 |
| 20260503183732 | 15 | 257 | 4.8 | 22.5 | 0.00 | 0.00 | 0.00 | 34 | 1012.7 |
| 20260503183232 | 15 | 259 | 9.7 | 22.5 | 0.00 | 0.00 | 0.00 | 34 | 1012.9 |
| 20260503182732 | 15 | 281 | 1.6 | 22.5 | 0.00 | 0.00 | 0.00 | 35 | 1012.8 |
| 20260503182232 | 15 | 271 | 8.0 | 22.5 | 0.00 | 0.00 | 0.00 | 36 | 1012.8 |
| 20260503181732 | 15 | 290 | 1.6 | 22.5 | 0.00 | 0.00 | 0.00 | 36 | 1012.9 |
| 20260503181232 | 14 | 230 | 1.6 | 22.5 | 0.00 | 0.00 | 0.00 | 37 | 1012.8 |
| 20260503180731 | 13 | 221 | 1.6 | 22.5 | 0.00 | 0.00 | 0.00 | 38 | 1012.8 |
| 20260503180231 | 13 | 284 | 8.0 | 22.5 | 0.00 | 0.00 | 0.00 | 37 | 1012.9 |
| 20260503175731 | 13 | 327 | 4.8 | 22.5 | 0.00 | 0.00 | 0.00 | 38 | 1012.9 |
| 20260503175231 | 13 | 278 | 3.2 | 22.5 | 0.00 | 0.00 | 0.00 | 38 | 1013.0 |
| 20260503174731 | 13 | 191 | 3.2 | 22.5 | 0.00 | 0.00 | 0.00 | 39 | 1013.2 |
| 20260503174230 | 13 | 323 | 3.2 | 22.5 | 0.00 | 0.00 | 0.00 | 38 | 1013.0 |
| 20260503173730 | 13 | 260 | 8.0 | 22.5 | 0.00 | 0.00 | 0.00 | 38 | 1013.0 |
| 20260503173230 | 13 | 327 | 4.8 | 22.5 | 0.00 | 0.00 | 0.00 | 39 | 1013.0 |
| 20260503172730 | 13 | 304 | 4.8 | 22.5 | 0.00 | 0.00 | 0.00 | 40 | 1013.0 |
| 20260503172230 | 13 | 315 | 8.0 | 22.5 | 0.00 | 0.00 | 0.00 | 38 | 1013.1 |
| 20260503171730 | 13 | 266 | 3.2 | 22.5 | 0.00 | 0.00 | 0.00 | 39 | 1013.1 |
| 20260503171230 | 13 | 311 | 8.0 | 22.5 | 0.00 | 0.00 | 0.00 | 39 | 1013.1 |
| 20260503170729 | 13 | 298 | 9.7 | 22.5 | 0.00 | 0.00 | 0.00 | 40 | 1013.1 |
| 20260503170229 | 12 | 265 | 1.6 | 22.5 | 0.00 | 0.00 | 0.00 | 41 | 1013.1 |
| 20260503150725 | 12 | 239 | 1.6 | 22.5 | 0.00 | 0.00 | 0.00 | 39 | 1013.6 |
| 20260503150225 | 12 | 286 | 3.2 | 22.5 | 0.00 | 0.00 | 0.00 | 39 | 1013.6 |
| 20260503140224 | 12 | 343 | 3.2 | 22.5 | 0.00 | 0.00 | 0.00 | 47 | 1013.7 |
| 20260503131222 | 10 | 338 | 1.6 | 19.3 | 0.00 | 0.00 | 0.00 | 52 | 1013.7 |
| 20260503130722 | 10 | 224 | 1.6 | 19.3 | 0.00 | 0.00 | 0.00 | 52 | 1013.7 |
| 20260503130221 | 10 | 295 | 1.6 | 19.3 | 0.00 | 0.00 | 0.00 | 53 | 1013.6 |
| 20260503120220 | 9 | 309 | 0.0 | 16.1 | 0.00 | 0.00 | 0.00 | 56 | 1013.4 |
| 20260503110718 | 7 | 276 | 0.0 | 16.1 | 0.00 | 0.00 | 0.00 | 58 | 1013.0 |
| 20260503110218 | 7 | 308 | 3.2 | 16.1 | 0.00 | 0.00 | 0.00 | 58 | 1013.0 |
| 20260503100216 | 8 | 329 | 0.0 | 16.1 | 0.00 | 0.00 | 0.00 | 57 | 1011.9 |
| 20260503090214 | 8 | 337 | 1.6 | 16.1 | 0.00 | 0.00 | 0.00 | 55 | 1011.5 |
| 20260503081212 | 8 | 1 | 1.6 | 14.5 | 0.00 | 0.00 | 0.00 | 54 | 1011.5 |
| 20260503080712 | 8 | 358 | 1.6 | 14.5 | 0.00 | 0.00 | 0.00 | 54 | 1011.4 |
| 20260503080212 | 8 | 327 | 3.2 | 14.5 | 0.00 | 0.00 | 0.00 | 54 | 1011.5 |
| 20260503072711 | 9 | 257 | 1.6 | 14.5 | 0.00 | 0.00 | 0.00 | 52 | 1011.5 |
| 20260503072211 | 9 | 5 | 3.2 | 14.5 | 0.00 | 0.00 | 0.00 | 52 | 1011.4 |
| 20260503071711 | 9 | 238 | 0.0 | 14.5 | 0.00 | 0.00 | 0.00 | 52 | 1011.5 |
| 20260503071211 | 9 | 236 | 1.6 | 14.5 | 0.00 | 0.00 | 0.00 | 51 | 1011.4 |
| 20260503070711 | 9 | 309 | 1.6 | 14.5 | 0.00 | 0.00 | 0.00 | 51 | 1011.4 |
| 20260503070210 | 10 | 354 | 1.6 | 14.5 | 0.00 | 0.00 | 0.00 | 50 | 1011.4 |
| 20260503060208 | 10 | 350 | 0.0 | 14.5 | 0.00 | 0.00 | 0.00 | 48 | 1011.7 |
| 20260503054708 | 10 | 330 | 1.6 | 14.5 | 0.00 | 0.00 | 0.00 | 46 | 1011.7 |
| 20260503054208 | 10 | 0 | 3.2 | 14.5 | 0.00 | 0.00 | 0.00 | 46 | 1011.7 |
| 20260503053708 | 10 | 319 | 1.6 | 14.5 | 0.00 | 0.00 | 0.00 | 46 | 1011.7 |
| 20260503053207 | 11 | 299 | 1.6 | 14.5 | 0.00 | 0.00 | 0.00 | 46 | 1011.8 |
| 20260503052707 | 11 | 319 | 4.8 | 14.5 | 0.00 | 0.00 | 0.00 | 46 | 1011.8 |
| 20260503052207 | 11 | 293 | 0.0 | 14.5 | 0.00 | 0.00 | 0.00 | 46 | 1011.8 |
| 20260503051707 | 11 | 346 | 3.2 | 14.5 | 0.00 | 0.00 | 0.00 | 46 | 1011.9 |
| 20260503051207 | 11 | 313 | 4.8 | 14.5 | 0.00 | 0.00 | 0.00 | 45 | 1012.0 |
| 20260503050707 | 11 | 243 | 1.6 | 12.9 | 0.00 | 0.00 | 0.00 | 46 | 1012.1 |
| 20260503050206 | 11 | 351 | 1.6 | 12.9 | 0.00 | 0.00 | 0.00 | 45 | 1012.1 |
| 20260503045706 | 11 | 348 | 3.2 | 12.9 | 0.00 | 0.00 | 0.00 | 46 | 1012.2 |
| 20260503045206 | 11 | 343 | 3.2 | 12.9 | 0.00 | 0.00 | 0.00 | 46 | 1012.2 |
| 20260503044706 | 11 | 331 | 1.6 | 12.9 | 0.00 | 0.00 | 0.00 | 46 | 1012.3 |
| 20260503044206 | 11 | 350 | 3.2 | 12.9 | 0.00 | 0.00 | 0.00 | 45 | 1012.2 |
| 20260503043706 | 11 | 297 | 1.6 | 11.3 | 0.00 | 0.00 | 0.00 | 45 | 1012.2 |
| 20260503043205 | 11 | 335 | 0.0 | 11.3 | 0.00 | 0.00 | 0.00 | 45 | 1012.1 |
| 20260503042705 | 11 | 355 | 3.2 | 11.3 | 0.00 | 0.00 | 0.00 | 45 | 1012.2 |
| 20260503042205 | 11 | 357 | 3.2 | 11.3 | 0.00 | 0.00 | 0.00 | 45 | 1012.2 |
| 20260503041705 | 11 | 34 | 1.6 | 11.3 | 0.00 | 0.00 | 0.00 | 45 | 1012.2 |
| 20260503041205 | 11 | 13 | 1.6 | 11.3 | 0.00 | 0.00 | 0.00 | 44 | 1012.2 |
| 20260503040705 | 11 | 317 | 0.0 | 11.3 | 0.00 | 0.00 | 0.00 | 44 | 1012.3 |
| 20260503040204 | 11 | 138 | 1.6 | 4.8 | 0.00 | 0.00 | 0.00 | 44 | 1012.3 |
| 20260503035704 | 11 | 322 | 1.6 | 14.5 | 0.00 | 0.00 | 0.00 | 44 | 1012.3 |
| 20260503035204 | 11 | 306 | 3.2 | 14.5 | 0.00 | 0.00 | 0.00 | 44 | 1012.3 |
| 20260503034704 | 12 | 323 | 3.2 | 14.5 | 0.00 | 0.00 | 0.00 | 45 | 1012.3 |
| 20260503034204 | 12 | 294 | 0.0 | 14.5 | 0.00 | 0.00 | 0.00 | 45 | 1012.3 |
| 20260503033704 | 12 | 316 | 1.6 | 14.5 | 0.00 | 0.00 | 0.00 | 44 | 1012.3 |
| 20260503033203 | 12 | 309 | 4.8 | 14.5 | 0.00 | 0.00 | 0.00 | 44 | 1012.2 |
| 20260503032703 | 12 | 321 | 1.6 | 14.5 | 0.00 | 0.00 | 0.00 | 44 | 1012.2 |
| 20260503032203 | 12 | 300 | 0.0 | 14.5 | 0.00 | 0.00 | 0.00 | 44 | 1012.3 |
| 20260503031703 | 12 | 352 | 1.6 | 14.5 | 0.00 | 0.00 | 0.00 | 43 | 1012.2 |
| 20260503031203 | 12 | 347 | 0.0 | 14.5 | 0.00 | 0.00 | 0.00 | 43 | 1012.2 |
| 20260503030703 | 12 | 8 | 1.6 | 14.5 | 0.00 | 0.00 | 0.00 | 43 | 1012.3 |
| 20260503030202 | 12 | 277 | 1.6 | 14.5 | 0.00 | 0.00 | 0.00 | 42 | 1012.3 |
| 20260503025702 | 12 | 319 | 0.0 | 14.5 | 0.00 | 0.00 | 0.00 | 42 | 1012.3 |
| 20260503025202 | 12 | 326 | 0.0 | 14.5 | 0.00 | 0.00 | 0.00 | 42 | 1012.3 |
| 20260503024702 | 12 | 9 | 0.0 | 14.5 | 0.00 | 0.00 | 0.00 | 43 | 1012.3 |
| 20260503024202 | 12 | 319 | 1.6 | 14.5 | 0.00 | 0.00 | 0.00 | 42 | 1012.2 |
| 20260503023701 | 12 | 240 | 0.0 | 14.5 | 0.00 | 0.00 | 0.00 | 42 | 1012.3 |
| 20260503023201 | 12 | 334 | 1.6 | 14.5 | 0.00 | 0.00 | 0.00 | 42 | 1012.1 |
| 20260503022701 | 12 | 286 | 1.6 | 14.5 | 0.00 | 0.00 | 0.00 | 42 | 1012.1 |
| 20260503022201 | 12 | 336 | 3.2 | 14.5 | 0.00 | 0.00 | 0.00 | 42 | 1012.2 |
| 20260503021701 | 12 | 326 | 0.0 | 14.5 | 0.00 | 0.00 | 0.00 | 42 | 1012.2 |
| 20260503021201 | 12 | 310 | 1.6 | 14.5 | 0.00 | 0.00 | 0.00 | 42 | 1012.2 |
| 20260503020700 | 12 | 338 | 0.0 | 14.5 | 0.00 | 0.00 | 0.00 | 42 | 1012.2 |
| 20260503020200 | 12 | 301 | 1.6 | 14.5 | 0.00 | 0.00 | 0.00 | 42 | 1012.2 |
| 20260503015700 | 12 | 301 | 0.0 | 14.5 | 0.00 | 0.00 | 0.00 | 43 | 1012.3 |
| 20260503015200 | 12 | 231 | 0.0 | 14.5 | 0.00 | 0.00 | 0.00 | 43 | 1012.2 |
| 20260503014700 | 12 | 339 | 1.6 | 14.5 | 0.00 | 0.00 | 0.00 | 43 | 1012.4 |
| 20260503014159 | 12 | 12 | 0.0 | 14.5 | 0.00 | 0.00 | 0.00 | 42 | 1012.3 |
| 20260503013659 | 13 | 303 | 0.0 | 14.5 | 0.00 | 0.00 | 0.00 | 42 | 1012.4 |
| 20260503013159 | 13 | 300 | 1.6 | 14.5 | 0.00 | 0.00 | 0.00 | 42 | 1012.3 |
| 20260503012659 | 13 | 7 | 1.6 | 14.5 | 0.00 | 0.00 | 0.00 | 41 | 1012.3 |
| 20260503012159 | 13 | 74 | 1.6 | 14.5 | 0.00 | 0.00 | 0.00 | 41 | 1012.3 |
| 20260503011659 | 13 | 349 | 0.0 | 14.5 | 0.00 | 0.00 | 0.00 | 42 | 1012.3 |
| 20260503011158 | 13 | 357 | 1.6 | 14.5 | 0.00 | 0.00 | 0.00 | 42 | 1012.1 |
| 20260503010658 | 13 | 323 | 0.0 | 14.5 | 0.00 | 0.00 | 0.00 | 42 | 1012.2 |
| 20260503010158 | 13 | 253 | 0.0 | 14.5 | 0.00 | 0.00 | 0.00 | 41 | 1012.1 |
| 20260503005658 | 13 | 304 | 1.6 | 14.5 | 0.00 | 0.00 | 0.00 | 41 | 1012.0 |
| 20260503005158 | 13 | 358 | 1.6 | 14.5 | 0.00 | 0.00 | 0.00 | 42 | 1012.1 |